Back to catalog

STARLINK-37647

AliveCommunicationsVLEO
NORAD 69207·PAYLOAD·🇺🇸 United States

Launched May 25, 2026 from Cape Canaveral Space Force Station

Loading…

Next Passes (next 24 hours)

TLE

FreshSource: CelesTrak SupGP

Epoch: Sep 14, 2026, 23:27 UTC

1 69207C 26114AB  26257.97756944 -.00015366  00000+0 -45403-3 0  2579
2 69207  53.1573 139.3387 0001247  74.8849 191.3863 15.34395252    19

Track STARLINK-37647 in real time with AllMySat

Download on the App Store